Weather History for Mullan Pass, ID

Change the Weather History Date:

Friday, December 7, 2012

  Actual Average (K3TH) Record (K3TH)
Temperature  
Mean Temperature 22 °F -  
Max Temperature 26 °F 32 °F 39 °F (1998)
Min Temperature 19 °F 27 °F 26 °F (1997)
Degree Days  
Heating Degree Days 42    
Moisture  
Dew Point 20 °F    
Average Humidity 86    
Maximum Humidity 93    
Minimum Humidity 80    
Precipitation  
Precipitation 0.67 in - - ()
Sea Level Pressure  
Sea Level Pressure 29.71 in    
Wind  
Wind Speed 8 mph (WNW)    
Max Wind Speed 15 mph    
Max Gust Speed 31 mph    
Visibility 2 miles    
Events Fog , Rain , Snow    
Averages and records for this station are not official NWS values.
T = Trace of Precipitation, MM = Missing Value Source: NWS Daily Summary

Daily Weather History Graph

Daily Weather History Graph

Search for Another Location

Airport:

Trip Planner

Search our weather history database for the weather conditions in past years. The results will help you decide how hot, cold, wet, or windy it might be!

Date:

Astronomy

Dec. 07, 2012 Rise Set
Actual Time 7:16 AM PST 3:51 PM PST
Civil Twilight 6:41 AM PST 4:27 PM PST
Nautical Twilight 6:02 AM PST 5:06 PM PST
Astronomical Twilight 5:25 AM PST 5:43 PM PST
Moon 12:17 AM PST (12/7) 12:11 PM PST (12/7)
Length of Visible Light 9h 46m
Length of Day
8h 35m
Last Quarter, 37% of the Moon is Illuminated
Dec 7
Last Quarter
Dec 13
New
Dec 19
First Quarter
Dec 28
Full
Jan 4
Last Quarter

Hourly Weather History & Observations

Time (PST) Temp. Windchill Dew Point Humidity Pressure Visibility Wind Dir Wind Speed Gust Speed Precip Events Conditions
12:02 AM 24.8 °F 16.9 °F 21.2 °F 86% 29.81 in 0.8 mi Variable 6.9 mph - 0.01 in Snow Light Snow
12:53 AM 24.1 °F 16.0 °F 21.0 °F 88% 29.95 in 0.5 mi Variable 6.9 mph - 0.04 in Fog , Snow Snow
1:28 AM 24.8 °F 16.9 °F 21.2 °F 86% 29.82 in 1.5 mi Variable 6.9 mph - 0.01 in Snow Light Snow
1:42 AM 24.8 °F 17.9 °F 21.2 °F 86% 29.83 in 0.8 mi Variable 5.8 mph - 0.01 in Snow Light Snow
1:50 AM 24.8 °F 15.3 °F 21.2 °F 86% 29.83 in 1.5 mi NW 9.2 mph - 0.01 in Snow Light Snow
1:53 AM 24.1 °F 15.2 °F 21.0 °F 88% 29.98 in 4.0 mi WNW 8.1 mph 18.4 mph 0.01 in Snow Light Snow
2:05 AM 23.0 °F 13.9 °F 19.4 °F 86% 29.83 in 7.0 mi NW 8.1 mph - 0.00 in Snow Light Snow
2:10 AM 24.8 °F 17.9 °F 19.4 °F 80% 29.84 in 1.8 mi Variable 5.8 mph - 0.01 in Snow Light Snow
2:13 AM 24.8 °F 14.6 °F 21.2 °F 86% 29.84 in 0.8 mi NW 10.4 mph 20.7 mph 0.01 in Snow Light Snow
2:23 AM 24.8 °F 16.1 °F 19.4 °F 80% 29.84 in 1.0 mi NW 8.1 mph 20.7 mph 0.01 in Snow Light Snow
2:26 AM 23.0 °F 13.1 °F 19.4 °F 86% 29.84 in 2.0 mi NW 9.2 mph 20.7 mph 0.01 in Snow Light Snow
2:32 AM 23.0 °F 11.7 °F 19.4 °F 86% 29.84 in 1.2 mi WNW 11.5 mph 23.0 mph 0.01 in Snow Light Snow
2:53 AM 23.0 °F 13.1 °F 19.9 °F 88% 29.99 in 1.0 mi NW 9.2 mph - 0.02 in Snow Light Snow
3:02 AM 24.8 °F 16.9 °F 19.4 °F 80% 29.84 in 0.8 mi Variable 6.9 mph 19.6 mph 0.00 in Snow Light Snow
3:33 AM 24.8 °F 16.9 °F 19.4 °F 80% 29.84 in 0.5 mi Variable 6.9 mph - 0.01 in Fog , Snow Light Snow
3:53 AM 24.1 °F 17.0 °F 19.9 °F 84% 29.99 in 0.8 mi Variable 5.8 mph - 0.01 in Snow Light Snow
3:58 AM 24.8 °F 16.9 °F 19.4 °F 80% 29.84 in 1.5 mi Variable 6.9 mph - 0.00 in   Overcast
4:04 AM 23.0 °F 17.0 °F 19.4 °F 86% 29.84 in 3.0 mi Variable 4.6 mph - 0.00 in   Overcast
4:48 AM 21.2 °F 11.7 °F 19.4 °F 93% 29.85 in 10.0 mi WNW 8.1 mph - 0.00 in   Overcast
4:53 AM 21.9 °F 12.5 °F 19.0 °F 89% 29.99 in 10.0 mi WNW 8.1 mph - 0.00 in   Overcast
5:32 AM 23.0 °F - 19.4 °F 86% 29.85 in 2.5 mi Calm Calm - N/A   Overcast
5:53 AM 23.0 °F 18.4 °F 19.0 °F 85% 29.99 in 6.0 mi Variable 3.5 mph - 0.00 in   Overcast
6:53 AM 21.9 °F 12.5 °F 19.0 °F 89% 29.99 in 9.0 mi SW 8.1 mph - 0.00 in   Overcast
7:33 AM 21.2 °F 12.6 °F 19.4 °F 93% 29.83 in 1.8 mi Variable 6.9 mph - 0.00 in Snow Light Snow
7:47 AM 23.0 °F 14.7 °F 19.4 °F 86% 29.83 in 3.0 mi Variable 6.9 mph - 0.00 in Snow Light Snow
7:53 AM 23.0 °F 14.7 °F 19.0 °F 85% 29.97 in 3.0 mi Variable 6.9 mph 16.1 mph 0.00 in Snow Light Snow
8:37 AM 23.0 °F 13.9 °F 19.4 °F 86% 29.81 in 1.8 mi SW 8.1 mph - 0.00 in Snow Light Snow
8:44 AM 23.0 °F 12.4 °F 19.4 °F 86% 29.81 in 3.0 mi SW 10.4 mph 18.4 mph 0.00 in Snow Light Snow
8:53 AM 23.0 °F 15.8 °F 19.9 °F 88% 29.94 in 3.0 mi Variable 5.8 mph 16.1 mph 0.00 in Snow Light Snow
8:56 AM 23.0 °F 13.9 °F 19.4 °F 86% 29.80 in 1.8 mi SW 8.1 mph - 0.00 in Snow Light Snow
9:04 AM 24.8 °F 19.1 °F 19.4 °F 80% 29.80 in 0.8 mi Variable 4.6 mph - 0.00 in Snow Light Snow
9:22 AM 24.8 °F 17.9 °F 19.4 °F 80% 29.79 in 0.2 mi Variable 5.8 mph - 0.01 in Fog , Snow Snow
9:31 AM 24.8 °F 20.5 °F 21.2 °F 86% 29.79 in 0.5 mi Variable 3.5 mph - 0.02 in Fog , Snow Light Snow
9:48 AM 24.8 °F 17.9 °F 21.2 °F 86% 29.78 in 0.2 mi Variable 5.8 mph - 0.03 in Fog , Snow Heavy Snow
9:53 AM 24.1 °F 18.2 °F 21.0 °F 88% 29.91 in 0.2 mi Variable 4.6 mph - 0.04 in Fog , Snow Heavy Snow
10:13 AM 24.8 °F 17.9 °F 21.2 °F 86% 29.77 in 0.5 mi Variable 5.8 mph - 0.01 in Fog , Snow Snow
10:26 AM 24.8 °F 16.1 °F 21.2 °F 86% 29.77 in 0.2 mi South 8.1 mph - 0.02 in Fog , Snow Snow
10:37 AM 24.8 °F 16.1 °F 21.2 °F 86% 29.76 in 0.5 mi SSW 8.1 mph 19.6 mph 0.03 in Fog , Snow Snow
10:53 AM 26.1 °F 20.5 °F 21.0 °F 81% 29.87 in 0.5 mi Variable 4.6 mph 16.1 mph 0.04 in Snow Snow
11:16 AM 26.6 °F 19.1 °F 21.2 °F 80% 29.74 in 0.2 mi Variable 6.9 mph - 0.01 in Fog , Snow Snow
11:28 AM 26.6 °F 21.2 °F 21.2 °F 80% 29.73 in 0.5 mi Variable 4.6 mph - 0.01 in Fog , Snow Light Snow
11:46 AM 26.6 °F 20.0 °F 21.2 °F 80% 29.71 in 0.2 mi Variable 5.8 mph 19.6 mph 0.03 in Fog , Snow Snow
11:53 AM 26.1 °F 18.4 °F 21.9 °F 84% 29.81 in 0.2 mi Variable 6.9 mph - 0.03 in Fog , Snow Snow
12:38 PM 26.6 °F 18.2 °F 21.2 °F 80% 29.67 in 0.2 mi SSW 8.1 mph 24.2 mph 0.04 in Fog , Snow Heavy Snow
12:53 PM 25.0 °F 18.1 °F 21.9 °F 88% 29.77 in 0.2 mi Variable 5.8 mph 21.9 mph 0.06 in Fog , Snow Snow
1:53 PM 26.1 °F 16.2 °F 21.9 °F 84% 29.73 in 0.2 mi SSW 10.4 mph 29.9 mph 0.10 in Fog , Snow Light Snow
2:53 PM 26.1 °F 16.8 °F 21.9 °F 84% 29.73 in 0.2 mi WSW 9.2 mph 26.5 mph 0.05 in Fog , Snow Light Snow
3:18 PM 24.8 °F 14.6 °F 21.2 °F 86% 29.60 in 0.5 mi West 10.4 mph 29.9 mph 0.01 in Fog , Snow Snow
3:30 PM 24.8 °F 16.1 °F 19.4 °F 80% 29.60 in 1.0 mi West 8.1 mph 28.8 mph 0.02 in Snow Light Snow
3:33 PM 24.8 °F 15.3 °F 19.4 °F 80% 29.60 in 1.2 mi West 9.2 mph 27.6 mph 0.02 in Snow Light Snow
3:37 PM 24.8 °F 15.3 °F 21.2 °F 86% 29.60 in 0.8 mi West 9.2 mph 27.6 mph 0.02 in Snow Light Snow
3:53 PM 24.1 °F 12.5 °F 21.0 °F 88% 29.72 in 0.8 mi West 12.7 mph 27.6 mph 0.02 in Snow Light Snow
4:00 PM 24.8 °F 15.3 °F 19.4 °F 80% 29.59 in 1.5 mi WSW 9.2 mph 31.1 mph 0.01 in Snow Light Snow
4:09 PM 24.8 °F 14.0 °F 21.2 °F 86% 29.60 in 1.2 mi West 11.5 mph 29.9 mph 0.01 in Snow Light Snow
4:15 PM 24.8 °F 14.6 °F 21.2 °F 86% 29.60 in 1.5 mi WNW 10.4 mph 29.9 mph 0.01 in Snow Light Snow
4:18 PM 24.8 °F 16.1 °F 21.2 °F 86% 29.60 in 2.0 mi WNW 8.1 mph 23.0 mph 0.01 in Snow Light Snow
4:25 PM 24.8 °F 12.4 °F 21.2 °F 86% 29.60 in 2.0 mi WNW 15.0 mph 31.1 mph 0.02 in Snow Light Snow
4:27 PM 24.8 °F 14.0 °F 21.2 °F 86% 29.60 in 1.2 mi WNW 11.5 mph 31.1 mph 0.02 in Snow Light Snow
4:31 PM 24.8 °F 15.3 °F 21.2 °F 86% 29.60 in 0.8 mi NW 9.2 mph 29.9 mph 0.02 in Snow Light Snow
4:37 PM 24.8 °F 16.9 °F 21.2 °F 86% 29.60 in 1.0 mi Variable 6.9 mph 27.6 mph 0.02 in Snow Light Snow
4:50 PM 24.8 °F 14.0 °F 21.2 °F 86% 29.60 in 0.8 mi WNW 11.5 mph 27.6 mph 0.03 in Snow Light Snow
5:01 PM 24.8 °F 14.0 °F 21.2 °F 86% 29.59 in 0.8 mi WNW 11.5 mph 24.2 mph 0.01 in Snow Light Snow
5:04 PM 24.8 °F 13.4 °F 21.2 °F 86% 29.59 in 1.8 mi WNW 12.7 mph 26.5 mph 0.01 in Snow Light Snow
5:06 PM 24.8 °F 14.0 °F 21.2 °F 86% 29.59 in 3.0 mi WNW 11.5 mph 26.5 mph 0.01 in Snow Light Snow
5:17 PM 24.8 °F 14.0 °F 21.2 °F 86% 29.59 in 10.0 mi WNW 11.5 mph 24.2 mph 0.01 in   Overcast
5:24 PM 24.8 °F 17.9 °F 21.2 °F 86% 29.59 in 10.0 mi Variable 5.8 mph 24.2 mph 0.01 in   Overcast
5:29 PM 24.8 °F 16.9 °F 21.2 °F 86% 29.59 in 10.0 mi NW 6.9 mph 16.1 mph 0.01 in   Overcast
5:36 PM 24.8 °F 13.4 °F 21.2 °F 86% 29.58 in 6.0 mi NW 12.7 mph 27.6 mph 0.01 in Snow Light Snow
5:41 PM 24.8 °F 16.1 °F 21.2 °F 86% 29.58 in 2.0 mi WNW 8.1 mph 27.6 mph 0.01 in Snow Light Snow
5:47 PM 24.8 °F 15.3 °F 21.2 °F 86% 29.58 in 1.2 mi NW 9.2 mph 17.3 mph 0.01 in Snow Light Snow
5:53 PM 24.1 °F 16.0 °F 21.0 °F 88% 29.70 in 1.0 mi Variable 6.9 mph 18.4 mph 0.01 in Snow Light Snow
5:57 PM 24.8 °F 15.3 °F 21.2 °F 86% 29.58 in 0.5 mi NNW 9.2 mph - 0.00 in Fog , Snow Snow
6:06 PM 24.8 °F 15.3 °F 21.2 °F 86% 29.58 in 0.2 mi NW 9.2 mph 31.1 mph 0.01 in Fog , Snow Snow
6:53 PM 23.0 °F 11.1 °F 19.0 °F 85% 29.70 in 1.2 mi WNW 12.7 mph 29.9 mph 0.05 in Snow Light Snow
6:55 PM 23.0 °F 12.4 °F 19.4 °F 86% 29.57 in 2.0 mi WNW 10.4 mph 28.8 mph 0.00 in Snow Light Snow
7:00 PM 23.0 °F 12.4 °F 19.4 °F 86% 29.57 in 6.0 mi WNW 10.4 mph 27.6 mph 0.00 in   Overcast
7:03 PM 23.0 °F 12.4 °F 19.4 °F 86% 29.57 in 8.0 mi West 10.4 mph 25.3 mph 0.00 in Rain Light Freezing Rain
7:06 PM 23.0 °F 11.7 °F 19.4 °F 86% 29.57 in 6.0 mi WNW 11.5 mph 25.3 mph 0.00 in Snow Light Snow
7:17 PM 23.0 °F 13.1 °F 19.4 °F 86% 29.58 in 2.0 mi WNW 9.2 mph 21.9 mph 0.00 in Snow Light Snow
7:21 PM 23.0 °F 14.7 °F 19.4 °F 86% 29.58 in 1.2 mi NW 6.9 mph 21.9 mph 0.00 in Snow Light Snow
7:33 PM 23.0 °F 14.7 °F 19.4 °F 86% 29.58 in 3.0 mi Variable 6.9 mph 26.5 mph 0.00 in Snow Light Snow
7:43 PM 23.0 °F 11.1 °F 19.4 °F 86% 29.57 in 1.2 mi NW 12.7 mph 26.5 mph 0.00 in Snow Light Snow
7:51 PM 21.2 °F 8.3 °F 19.4 °F 93% 29.58 in 0.8 mi NW 13.8 mph 26.5 mph 0.00 in Snow Light Snow
7:53 PM 21.9 °F 9.2 °F 19.0 °F 89% 29.70 in 0.8 mi NW 13.8 mph 26.5 mph 0.00 in Snow Light Snow
8:01 PM 21.2 °F 10.9 °F 19.4 °F 93% 29.58 in 1.5 mi NW 9.2 mph 27.6 mph 0.00 in Snow Light Snow
8:06 PM 21.2 °F 10.1 °F 19.4 °F 93% 29.58 in 3.0 mi NW 10.4 mph 24.2 mph 0.00 in Snow Light Snow
8:11 PM 21.2 °F 10.1 °F 17.6 °F 86% 29.58 in 4.0 mi NW 10.4 mph 25.3 mph 0.00 in   Overcast
8:31 PM 21.2 °F 9.5 °F 17.6 °F 86% 29.58 in 7.0 mi NW 11.5 mph 27.6 mph 0.00 in Snow Light Snow
8:39 PM 21.2 °F 12.6 °F 17.6 °F 86% 29.59 in 2.0 mi Variable 6.9 mph 23.0 mph 0.00 in Snow Light Snow
8:41 PM 21.2 °F 13.6 °F 17.6 °F 86% 29.59 in 1.5 mi Variable 5.8 mph 20.7 mph 0.00 in Snow Light Snow
8:48 PM 21.2 °F 13.6 °F 17.6 °F 86% 29.59 in 1.5 mi Variable 5.8 mph 20.7 mph 0.00 in Snow Light Snow
8:51 PM 21.2 °F 10.9 °F 17.6 °F 86% 29.59 in 3.0 mi WNW 9.2 mph 24.2 mph 0.00 in Snow Light Snow
8:53 PM 19.9 °F 8.6 °F 16.0 °F 85% 29.73 in 6.0 mi NW 10.4 mph 24.2 mph 0.00 in Snow Light Snow
9:03 PM 19.4 °F 9.5 °F 17.6 °F 93% 29.60 in 1.2 mi NW 8.1 mph 23.0 mph 0.00 in Snow Light Snow
9:05 PM 19.4 °F 6.6 °F 17.6 °F 93% 29.59 in 0.5 mi WNW 12.7 mph 23.0 mph 0.01 in Fog , Snow Snow
9:13 PM 19.4 °F 7.9 °F 17.6 °F 93% 29.60 in 0.2 mi NW 10.4 mph 25.3 mph 0.03 in Fog , Snow Heavy Snow
9:23 PM 19.4 °F 7.9 °F 15.8 °F 86% 29.60 in 0.2 mi NW 10.4 mph 27.6 mph 0.04 in Fog , Snow Light Snow
9:27 PM 19.4 °F 5.5 °F 15.8 °F 86% 29.60 in 1.0 mi NW 15.0 mph 28.8 mph 0.04 in Snow Light Snow
9:30 PM 19.4 °F 7.9 °F 15.8 °F 86% 29.60 in 1.5 mi NNW 10.4 mph 29.9 mph 0.04 in Snow Light Snow
9:40 PM 19.4 °F 8.6 °F 17.6 °F 93% 29.61 in 2.0 mi NW 9.2 mph 25.3 mph 0.04 in   Overcast
9:49 PM 19.4 °F 7.2 °F 17.6 °F 93% 29.61 in 1.5 mi NW 11.5 mph 24.2 mph 0.04 in   Overcast
9:53 PM 19.9 °F 8.6 °F 17.1 °F 89% 29.75 in 1.5 mi NW 10.4 mph 24.2 mph 0.04 in   Overcast
10:19 PM 19.4 °F 8.6 °F 17.6 °F 93% 29.62 in 1.0 mi NW 9.2 mph - 0.00 in Snow Light Snow
10:28 PM 19.4 °F 8.6 °F 17.6 °F 93% 29.62 in 0.2 mi NW 9.2 mph 18.4 mph 0.01 in Fog , Snow Heavy Snow
10:53 PM 19.9 °F 11.1 °F 17.1 °F 89% 29.76 in 0.2 mi Variable 6.9 mph 18.4 mph 0.04 in Fog , Snow Heavy Snow
11:53 PM 19.9 °F 14.9 °F 17.1 °F 89% 29.78 in 0.2 mi Variable 3.5 mph - 0.11 in Fog , Snow Heavy Snow